Weather History for Lawton, OK

Change the Weather History Date:

Tuesday, January 22, 2013

  Actual Average Record
Temperature  
Mean Temperature 40 °F -  
Max Temperature 61 °F 52 °F 81 °F (1967)
Min Temperature 18 °F 28 °F 5 °F (1959)
Degree Days  
Heating Degree Days 26    
Moisture  
Dew Point 26 °F    
Average Humidity 62    
Maximum Humidity 88    
Minimum Humidity 33    
Precipitation  
Precipitation 0.00 in - - ()
Sea Level Pressure  
Sea Level Pressure 30.24 in    
Wind  
Wind Speed 3 mph (SSE)    
Max Wind Speed 9 mph    
Max Gust Speed -    
Visibility 10 miles    
Events      
Averages and records for this station are not official NWS values.
T = Trace of Precipitation, MM = Missing Value Source: NWS Daily Summary

Daily Weather History Graph

Daily Weather History Graph

Search for Another Location

Airport:

Trip Planner

Search our weather history database for the weather conditions in past years. The results will help you decide how hot, cold, wet, or windy it might be!

Date:

Astronomy

Jan. 22, 2013 Rise Set
Actual Time 7:37 AM CST 5:53 PM CST
Civil Twilight 7:10 AM CST 6:20 PM CST
Nautical Twilight 6:40 AM CST 6:51 PM CST
Astronomical Twilight 6:10 AM CST 7:21 PM CST
Moon 2:19 PM CST (1/22) 3:58 AM CST (1/22)
Length of Visible Light 11h 09m
Length of Day
10h 16m
Waxing Gibbous, 83% of the Moon is Illuminated
Jan 22
Waxing Gibbous
Jan 26
Full
Feb 3
Last Quarter
Feb 10
New
Feb 17
First Quarter

Hourly Weather History & Observations

Time (CST) Temp. Windchill Dew Point Humidity Pressure Visibility Wind Dir Wind Speed Gust Speed Precip Events Conditions
12:53 AM 24.1 °F - 18.0 °F 77% 30.29 in 10.0 mi Calm Calm - N/A   Clear
1:53 AM 23.0 °F - 18.0 °F 81% 30.29 in 10.0 mi Calm Calm - N/A   Clear
2:53 AM 21.9 °F - 17.1 °F 82% 30.30 in 10.0 mi Calm Calm - N/A   Clear
3:53 AM 21.9 °F 17.2 °F 17.1 °F 82% 30.30 in 10.0 mi NNW 3.5 mph - N/A   Clear
4:53 AM 21.9 °F - 18.0 °F 85% 30.30 in 10.0 mi Calm Calm - N/A   Clear
6:53 AM 19.0 °F - 15.1 °F 85% 30.30 in 10.0 mi Calm Calm - N/A   Clear
7:53 AM 18.0 °F - 15.1 °F 88% 30.31 in 10.0 mi Calm Calm - N/A   Clear
8:53 AM 27.0 °F - 21.0 °F 78% 30.31 in 10.0 mi Calm Calm - N/A   Clear
9:53 AM 37.9 °F 35.5 °F 23.0 °F 55% 30.30 in 10.0 mi SSW 3.5 mph - N/A   Clear
10:53 AM 45.0 °F 41.2 °F 24.1 °F 44% 30.30 in 10.0 mi South 6.9 mph - N/A   Clear
11:53 AM 48.9 °F - 24.1 °F 38% 30.29 in 10.0 mi SSW 5.8 mph - N/A   Clear
12:53 PM 52.0 °F - 26.1 °F 37% 30.23 in 10.0 mi South 8.1 mph - N/A   Scattered Clouds
1:53 PM 57.0 °F - 28.0 °F 33% 30.19 in 10.0 mi SSW 8.1 mph - N/A   Clear
2:53 PM 60.1 °F - 32.0 °F 35% 30.17 in 10.0 mi SW 6.9 mph - N/A   Clear
3:53 PM 61.0 °F - 33.1 °F 35% 30.17 in 10.0 mi SSE 9.2 mph - N/A   Clear
4:53 PM 61.0 °F - 35.1 °F 38% 30.15 in 10.0 mi SSE 9.2 mph - N/A   Clear
5:53 PM 54.0 °F - 34.0 °F 47% 30.17 in 10.0 mi SE 6.9 mph - N/A   Clear
6:53 PM 50.0 °F - 34.0 °F 54% 30.18 in 10.0 mi SE 4.6 mph - N/A   Clear
7:53 PM 45.0 °F 41.8 °F 34.0 °F 65% 30.19 in 10.0 mi SE 5.8 mph - N/A   Clear
8:53 PM 41.0 °F - 32.0 °F 70% 30.19 in 10.0 mi Calm Calm - N/A   Clear
9:53 PM 37.0 °F - 28.9 °F 73% 30.19 in 10.0 mi Calm Calm - N/A   Clear
10:53 PM 35.1 °F 32.2 °F 28.0 °F 76% 30.20 in 10.0 mi NNE 3.5 mph - N/A   Clear
11:53 PM 44.1 °F 40.8 °F 37.0 °F 76% 30.21 in 10.0 mi ENE 5.8 mph - N/A   Clear